Location: Columbia
(38.9520°N, 92.3340°W)
Time: 06:52:22
(UTC-05:00)

Iridium 52 - Visible Passes

Search period start: 21 August 2017 00:00
Search period end: 31 August 2017 00:00
Orbit: 776 x 779 km, 86.4° (Epoch: 20 August)

Date Brightness Start Highest point End Pass type
(mag) Time Alt. Az. Time Alt. Az. Time Alt. Az.
21 Aug 8.2 00:40:04 21° NNE 00:40:04 21° NNE 00:41:47 10° N visible
21 Aug 8.7 02:20:32 10° NW 02:20:32 10° NW 02:20:37 10° NW visible
22 Aug 8.4 00:06:41 16° NNE 00:06:41 16° NNE 00:07:51 10° NNE visible
22 Aug 8.5 01:47:09 15° NNW 01:47:09 15° NNW 01:48:20 10° NNW visible
22 Aug 8.7 23:33:17 10° NE 23:33:17 10° NE 23:33:22 10° NE visible
23 Aug 8.4 01:13:45 19° NNW 01:13:45 19° NNW 01:15:20 10° N visible
24 Aug 8.3 00:40:21 20° N 00:40:21 20° N 00:41:56 10° N visible
25 Aug 8.4 00:06:57 17° NNE 00:06:57 17° NNE 00:08:14 10° NNE visible
25 Aug 8.8 01:47:25 11° NW 01:47:25 11° NW 01:47:49 10° NNW visible
25 Aug 8.5 23:33:32 13° NNE 23:33:32 13° NNE 23:34:08 10° NNE visible
26 Aug 8.6 01:14:00 16° NNW 01:14:00 16° NNW 01:15:10 10° NNW visible
27 Aug 8.4 00:40:36 19° N 00:40:36 19° N 00:42:00 10° N visible
28 Aug 8.4 00:07:10 18° N 00:07:10 18° N 00:08:29 10° N visible
28 Aug 8.5 23:33:45 15° NNE 23:33:45 15° NNE 23:34:38 10° NNE visible
29 Aug 8.8 01:14:13 13° NNW 01:14:13 13° NNW 01:14:50 10° NNW visible
30 Aug 8.6 00:40:47 16° NNW 00:40:47 16° NNW 00:41:55 10° NNW visible
